Regional Weather Roundup
Issued by NWS Grand Forks, ND

Home | Current Version | Previous Version | Text Only | Print | Product List | Glossary Off
Versions: 1 2 3 4 5 6 7 8 9 10 11 12 13 14 15 16 17 18 19 20 21 22 23 24 25 26 27 28 29 30 31 32 33 34 35 36 37 38 39 40 41 42 43 44 45 46 47 48 49 50

000
ASUS43 KFGF 271910
RWRFGF
PRAIRIE TO PINES  WEATHER ROUNDUP
NATIONAL WEATHER SERVICE EASTERN NORTH DAKOTA/GRAND FORKS ND
200 PM CDT FRI MAR 27 2015

 **SATELLITE DATA USED TO AUGMENT SKY COVER AT AUTOMATED STATIONS**
 *****  WEATHER ACROSS EASTERN NORTH DAKOTA  *****

CITY           SKY/WX    TMP DP  RH WIND       PRES   REMARKS
GRAND FORKS    CLOUDY    32  16  51 S9        30.12F WCI  24
GRAND FRKS AFB CLOUDY    31  18  57 S10       30.10F WCI  23
GRAND FRKS NWS   N/A     32 N/A N/A S12         N/A  WCI  23
DEVILS LAKE    CLOUDY    28  23  80 S16       30.00F WCI  17
FARGO          CLOUDY    35   7  31 S14       30.13F
WAHPETON ARPT  FAIR      32   5  32 S9G17     30.16F WCI  24
$$

 ***** WEATHER ACROSS CENTRAL AND WESTERN NORTH DAKOTA  *****

CITY           SKY/WX    TMP DP  RH WIND       PRES   REMARKS
BISMARCK       CLOUDY    38  28  67 S10       29.96F
MINOT          FAIR      43  33  68 S15       29.88F
JAMESTOWN      LGT SNOW  27  24  89 S15       30.04F FOG     WCI  15
MINOT AFB      CLOUDY    45  41  87 W9        29.87F
GARRISON         N/A     42  35  76 SW12      29.90F
WILLISTON      PTSUNNY   58  36  43 N17       29.92S
DICKINSON      MOSUNNY   63  35  35 NW22G28   29.88S
HETTINGER      MOSUNNY   64  34  32 NW22G33   29.91F
$$

 *****  OTHER AIRPORT OBSERVATIONS IN OUR AREA  *****

CITY           SKY/WX    TMP DP  RH WIND       PRES   REMARKS
WALHALLA       MIX PCPN  28  28 100 S13       30.08F VSB 3/4 WCI  18
GRAFTON AIRPOR NOT AVBL
VALLEY CITY AR LGT SNOW  28  27  93 S16       30.07F WCI  17
CANDO          NOT AVBL
CAVALIER APRT  CLOUDY    28  25  86 S14       30.09F WCI  17
GWINNER        PTCLDY    34  18  51 S14         N/A  WCI  24
ROLLA          CLOUDY    27  27 100 S20       29.95F WCI  13
 ***** THE ABOVE OBSERVATIONS ARE NON NWS ARE NOT QUALITY
       CONTROLLED AND MAY MIS-REPORT RAIN FOR SNOW...
$$

  *****  WEATHER ACROSS NORTHERN MINNESOTA  *****

CITY           SKY/WX    TMP DP  RH WIND       PRES   REMARKS
FLAG ISLAND    FAIR      25  10  54 SE12      30.14F WCI  14
WARROAD        FAIR      30  10  43 S6        30.15S WCI  24
ROSEAU         FAIR      30  10  43 S8        30.14F WCI  23
HALLOCK        FAIR      30  16  55 S15       30.12F WCI  19
THF RVR FALLS  PTSUNNY   30   9  40 S13       30.13F WCI  20
BAUDETTE       FAIR      32   8  36 S7        30.13F
WASKISH        FAIR      28  10  47 CALM      30.15F
CROOKSTON      FAIR      32   7  34 S15       30.14F WCI  22
STEPHEN NDAWN    N/A     32  12  43 S13         N/A  WCI  22
GREENBUSH NDAW   N/A     30  16  55 S12         N/A  WCI  21
$$
  *****  WEATHER ACROSS CENTRAL AND WEST MINNESOTA  *****

CITY           SKY/WX    TMP DP  RH WIND       PRES   REMARKS
FOSSTON        FAIR      34   7  32 SW12      30.14F
BEMIDJI        FAIR      32   3  28 CALM      30.13F
PARK RAPIDS    FAIR      33   3  28 SE5       30.12F
ELBOW LAKE     FAIR      31   9  39 S10       30.16F WCI  23
WADENA         FAIR      32   7  34 SE6       30.14F
DETROIT LAKES  FAIR      32   5  32 S9        30.14F WCI  24
MOORHEAD       FAIR      34   1  25 S12       30.15F
FERGUS FALLS   FAIR      30   1  29 S10       30.18F WCI  21
MORRIS MN      FAIR      30  12  47 S9        30.16F WCI  22
STAPLES        FAIR      32   0  25 SW7       30.15F
$$
  *****  WEATHER ELSEWHERE ACROSS MINNESOTA  *****

CITY           SKY/WX    TMP DP  RH WIND       PRES   REMARKS
DULUTH         FAIR      28   7  41 S8        30.16F WCI  20
INTRNTL FALLS  FAIR      31   7  36 VRB6      30.15F
ELY            FAIR      28  -6  22 SW5       30.15F WCI  23
CLOQUET        FAIR      30  -2  24 CALM      30.16F
WHEATON        FAIR      30  14  51 S6        30.18F WCI  24
BRAINERD       FAIR      31   0  26 S6        30.16F
HIBBING        FAIR      31   0  26 VRB5      30.14F
ALEXANDRIA     FAIR      30   6  36 SW9       30.16F WCI  22
SAINT CLOUD    FAIR      31   1  28 S6        30.19F
MINNEAPOLIS    FAIR      33   0  24 CALM      30.22F
$$

  *****  WEATHER ACROSS SOUTH DAKOTA  *****

CITY           SKY/WX    TMP DP  RH WIND       PRES   REMARKS
SIOUX FALLS    CLOUDY    34   9  35 S8        30.16F
BROOKINGS      NOT AVBL
WATERTOWN      CLOUDY    33  13  43 SW7       30.11F
HURON          LGT SNOW  32  21  64 S13       30.12F WCI  22
SISSETON         N/A     36  10  34 SW12      30.12F
ABERDEEN       LGT SNOW  31  24  75 S15       30.10F VSB 1   WCI  20
MITCHELL       CLOUDY    35  19  52 S12       30.14F
PIERRE         CLOUDY    41  32  70 S21       30.00F
MOBRIDGE       CLOUDY    39  32  76 S21       29.96F
RAPID CITY     SUNNY     69  38  32 NW28G37   29.95F
$$

  *****  SOME WEATHER IN NEARBY STATES *****

CITY           SKY/WX    TMP DP  RH WIND       PRES   REMARKS
GLASGOW MT     PTSUNNY   64  38  38 W9        29.94F
GREAT FALLS MT PTSUNNY   70  26  19 W22G30    30.01F
CHEYENNE WY    MOSUNNY   59  27  29 NW21G37   30.15F
SCOTTSBLUFF NE MOSUNNY   67  38  34 NW17G24   30.05F
OMAHA NE       CLOUDY    39  14  36 VRB3      30.22F
DES MOINES IA  PTSUNNY   40   9  28 E9        30.22F
DAVENPORT IA   FAIR      35  10  35 MISG      30.20F
CHICAGO IL     PTSUNNY   30  11  45 NE9G18    30.16S WCI  22
EAU CLAIRE WI  FAIR      31   4  31 E5        30.20F
LA CROSSE WI   FAIR      33  11  39 W9        30.22F
$$

  *****  SOME NATIONAL WEATHER *****

CITY           SKY/WX    TMP DP  RH WIND       PRES   REMARKS
LA GUARDIA NY  CLOUDY    45  32  60 N9        29.72F
RALEIGH NC     CLOUDY    46  41  82 NE14      29.76S
ATLANTA GA     FAIR      56  33  42 NW22G32   29.85S
NEW ORLEANS LA FAIR      65  35  33 NW17      30.05F
OKLAHOMA CITY  PTSUNNY   52  36  54 NE9       30.23F
ALBUQUERQUE NM SUNNY     67  21  17 W3        30.27F
SALT LAKE CITY SUNNY     62  29  28 CALM      30.28F
LOS ANGELES CA SUNNY     78  54  43 W8        30.08F
BOISE ID       SUNNY     66  45  46 S7        30.18F
SEATTLE WA     PTSUNNY   61  51  70 SW15G21   30.04F
$$

*** WEATHER ACROSS MANITOBA...SASKATCHEWAN AND ONTARIO ***
                ***ONTARIO***

CITY           SKY/WX    TMP DP  RH WIND       PRES   REMARKS
GERALDTON      SUNNY     21  -6  30 SW8       30.16F WCI  12
THUNDER BAY    SUNNY     25  -6  26 S5        30.23F WCI  19
SIOUX LOOKOUT  SUNNY     25   3  39 SW5       30.15F WCI  19
TORONTO        PTSUNNY   27  12  54 N21G28    29.91F WCI  13
BIG TROUT LK   SUNNY     27   0  31 W13G18    30.08F WCI  16
PICKLE LAKE    SUNNY     25  -2  30 W7        30.11F WCI  17
DRYDEN         SUNNY     25   3  39 S9        30.14F WCI  15
KENORA         MOSUNNY   25   3  39 SW13G18   30.13F WCI  13
$$
                *** MANITOBA***

CITY           SKY/WX    TMP DP  RH WIND       PRES   REMARKS
BRANDON        LGT SNOW  30  27  86 SE17G23   29.95F WCI  18
DAUPHIN        LGT SNOW  30  28  93 E7        29.97S WCI  23
ISLAND LAKE    SUNNY     27   9  46 CALM      30.09F
PILOT MOUND      N/A     27  25  93 S21G26      N/A  WCI  13
THE PAS        MOSUNNY   36  21  55 S13       30.01S
THOMPSON       MOSUNNY   36  14  41 SW5       30.02F
WINNIPEG       FLURRIES  30  21  69 S16       30.10F WCI  19
LYNN LAKE      SUNNY     37  21  52 SW8G17    29.95S
CHURCHILL      SUNNY     27  14  59 W13       29.88F WCI  16
GILLAM         SUNNY     30  16  55 W8        30.01F WCI  23
$$
                ***SASKATCHEWAN***

CITY           SKY/WX    TMP DP  RH WIND       PRES   REMARKS
ESTEVAN        NOT AVBL
KINDERSLEY     NOT AVBL
LLOYDMINSTER   PTSUNNY   48  36  61 S6        29.89S
PRINCE ALBERT  CLOUDY    36  32  87 NE9       29.95R
REGINA         PTSUNNY   48  41  76 SW5       29.89S
YORKTON        CLOUDY    37  30  75 E6        29.89R
N. BATTLEFORD  SUNNY     45  36  70 E6        29.94
LA RONGE       CLOUDY    34  28  80 SE6       29.97S
SASKATOON      PTSUNNY   46  37  71 NE8       29.94R
SWIFT CURRENT  SUNNY     61  37  41 W14G22    29.89S
$$
NOTE: THESE ARE AUTOMATED STATIONS WITH LIMITED QUALITY CONTROL
      "FAIR" INDICATES FEW OR NO CLOUDS BELOW 12,000 FEET WITH NO
      SIGNIFICANT WEATHER AND/OR OBSTRUCTIONS TO VISIBILITY.
      SKY/WX - SKY CONDITION AND SIGNIFICANT WEATHER.
      TMP - AIR TEMPERATURE.    DP   - DEWPOINT TEMPERATURE.
      RH  - RELATIVE HUMIDITY.  PRES - PRESSURE.
      HX  - HEAT INDEX.         WCI  - WIND CHILL INDEX.
$



USA.gov is the U.S. government's official web portal to all federal, state and local government web resources and services.